CW0018 Weather Reports


time (UTC)temp
F
wind
direction
speed
knots
gust
knots
rain 1hr
in
rain 24hr
in
rain mn
in
humidity
%
barometer
mb
20260506204344 80 230 2.6 7.0 0.00 0.00 0.00 76 1009.2
20260506203844 81 267 1.7 5.2 0.00 0.00 0.00 75 1009.0
20260506202843 81 2 1.7 4.3 0.00 0.00 0.00 74 1008.8
20260506202341 80 295 1.7 5.2 0.00 0.00 0.00 74 1009.0
20260506201841 80 44 1.7 5.2 0.00 0.00 0.00 75 1009.1
20260506201341 80 115 2.6 6.1 0.00 0.00 0.00 75 1009.1
20260506200842 80 0 2.6 6.1 0.00 0.00 0.00 75 1009.0
20260506200341 80 275 2.6 5.2 0.00 0.00 0.00 75 1009.0
20260506195842 80 228 1.7 5.2 0.00 0.00 0.00 74 1009.0
20260506195342 80 257 1.7 4.3 0.00 0.00 0.00 73 1009.0
20260506194842 80 43 1.7 4.3 0.00 0.00 0.00 75 1009.1
20260506194342 80 215 1.7 5.2 0.00 0.00 0.00 75 1009.1
20260506193843 80 80 1.7 6.1 0.00 0.00 0.00 76 1009.1
20260506193339 79 221 1.7 6.1 0.00 0.00 0.00 76 1009.1
20260506192840 79 171 1.7 4.3 0.00 0.00 0.00 77 1009.2
20260506192336 78 199 2.6 5.2 0.00 0.00 0.00 77 1009.3
20260506191835 78 260 2.6 5.2 0.00 0.00 0.00 78 1009.5
20260506191337 79 47 1.7 5.2 0.00 0.00 0.00 76 1009.6
20260506190836 78 253 1.7 4.3 0.00 0.00 0.00 76 1009.4
20260506190336 78 96 1.7 5.2 0.00 0.00 0.00 77 1009.5
20260506185836 78 114 1.7 6.1 0.00 0.00 0.00 78 1009.6
20260506185337 78 23 1.7 6.1 0.00 0.00 0.00 77 1009.7
20260506184836 77 34 1.7 4.3 0.00 0.00 0.00 77 1009.6
20260506184337 76 53 1.7 5.2 0.00 0.00 0.00 78 1009.6
20260506183837 76 28 1.7 5.2 0.00 0.00 0.00 79 1009.8
20260506183338 75 144 1.7 5.2 0.00 0.00 0.00 80 1009.8
20260506182837 74 0 2.6 5.2 0.00 0.00 0.00 81 1009.8
20260506182336 74 112 2.6 5.2 0.00 0.00 0.00 82 1009.9
20260506181837 73 67 1.7 5.2 0.00 0.00 0.00 81 1009.9
20260506181334 73 87 1.7 5.2 0.00 0.00 0.00 82 1010.0
20260506180835 73 143 2.6 7.0 0.00 0.00 0.00 83 1010.2
20260506180334 72 342 3.5 8.7 0.00 0.00 0.00 82 1010.4
20260506174832 72 34 2.6 7.0 0.00 0.00 0.00 82 1010.7
20260506173831 71 136 1.7 6.1 0.00 0.00 0.00 83 1011.0
20260506173332 72 215 2.6 6.1 0.00 0.00 0.00 83 1011.1
20260506172832 72 149 2.6 6.1 0.00 0.00 0.00 83 1011.0
20260506172331 72 260 2.6 6.1 0.00 0.00 0.00 83 1010.9
20260506171831 72 234 2.6 6.1 0.00 0.00 0.00 84 1011.2
20260506171332 72 254 2.6 6.1 0.00 0.00 0.00 85 1011.1
20260506170832 73 144 2.6 5.2 0.00 0.00 0.00 84 1011.2
20260506170333 76 19 2.6 6.1 0.00 0.00 0.00 81 1011.0
20260506165832 78 282 1.7 6.1 0.00 0.00 0.00 82 1010.7
20260506165331 78 204 1.7 4.3 0.00 0.00 0.00 88 1010.3
20260506164832 78 131 1.7 4.3 0.00 0.00 0.00 88 1010.4
20260506163830 78 87 1.7 4.3 0.00 0.00 0.00 88 1010.5
20260506163331 78 108 0.9 1.7 0.00 0.00 0.00 89 1010.6
20260506162831 78 146 1.7 1.7 0.00 0.00 0.00 89 1010.7
20260506162331 78 57 1.7 2.6 0.00 0.00 0.00 90 1010.8
20260506161830 78 226 1.7 3.5 0.00 0.00 0.00 90 1010.9
20260506161330 78 119 1.7 3.5 0.00 0.00 0.00 90 1010.8
20260506155818 78 308 0.9 1.7 0.00 0.00 0.00 89 1010.5
20260506155318 78 40 0.9 2.6 0.00 0.00 0.00 89 1010.4
20260506154817 78 113 1.7 2.6 0.00 0.00 0.00 89 1010.2
20260506154317 77 112 0.9 2.6 0.00 0.00 0.00 90 1010.1
20260506151304 77 93 1.7 3.5 0.00 0.00 0.00 91 1009.7
20260506150747 77 53 1.7 2.6 0.00 0.00 0.00 91 1009.6
20260506150249 77 127 1.7 2.6 0.00 0.00 0.00 91 1009.7
20260506145749 77 138 1.7 2.6 0.00 0.00 0.00 91 1009.5
20260506145249 77 105 1.7 3.5 0.00 0.00 0.00 91 1009.6
20260506144748 77 82 1.7 3.5 0.00 0.00 0.00 91 1009.7
20260506143734 76 101 0.9 2.6 0.00 0.00 0.00 91 1009.8
20260506143233 76 99 0.9 2.6 0.00 0.00 0.00 91 1009.8
20260506142734 76 41 1.7 2.6 0.00 0.00 0.00 92 1009.8
20260506142233 76 81 1.7 3.5 0.00 0.00 0.00 92 1009.6
20260506141734 76 82 2.6 3.5 0.00 0.00 0.00 92 1009.5
20260506141234 76 130 2.6 3.5 0.00 0.00 0.00 92 1009.4
20260506140233 76 101 1.7 3.5 0.00 0.00 0.00 92 1009.1
20260506135734 76 128 1.7 2.6 0.00 0.00 0.00 93 1008.9
20260506135232 76 124 1.7 3.5 0.00 0.00 0.00 93 1008.9
20260506134232 75 116 1.7 2.6 0.00 0.00 0.00 94 1008.9
20260506133719 75 97 1.7 2.6 0.00 0.00 0.00 94 1008.9
20260506133219 75 117 1.7 2.6 0.00 0.00 0.00 94 1008.9
20260506132720 75 79 1.7 3.5 0.00 0.00 0.00 94 1008.9
20260506132219 75 136 1.7 3.5 0.00 0.00 0.00 94 1008.9
20260506131720 75 106 1.7 2.6 0.00 0.00 0.00 95 1009.0
20260506131220 75 94 1.7 2.6 0.00 0.00 0.00 95 1008.9
20260506130720 75 115 0.9 2.6 0.00 0.00 0.00 95 1009.1
20260506130219 74 0 0.9 1.7 0.00 0.00 0.00 95 1009.1
20260506125719 74 74 0.9 1.7 0.00 0.00 0.00 95 1009.1
20260506125220 74 103 0.0 0.9 0.00 0.00 0.00 95 1009.2
20260506124719 74 0 0.0 0.9 0.00 0.00 0.00 95 1009.2
20260506124220 74 106 0.0 0.9 0.00 0.00 0.00 95 1009.2
20260506123720 74 0 0.9 1.7 0.00 0.00 0.00 95 1009.2
20260506123220 74 79 0.0 1.7 0.00 0.00 0.00 95 1009.2
20260506122720 74 116 0.0 0.9 0.00 0.00 0.00 95 1009.1
20260506122205 74 112 0.0 0.9 0.00 0.00 0.00 95 1009.1
20260506121706 74 80 0.0 0.9 0.00 0.00 0.00 95 1009.0
20260506120650 74 118 0.9 1.7 0.00 0.00 0.00 95 1009.1
20260506120150 74 102 0.9 1.7 0.00 0.00 0.00 95 1009.1
20260506115650 74 81 0.9 1.7 0.00 0.00 0.00 95 1009.0
20260506115151 74 0 0.9 1.7 0.00 0.00 0.00 95 1008.9
20260506114635 74 166 0.9 1.7 0.00 0.00 0.00 94 1008.9
20260506114135 74 64 0.9 1.7 0.00 0.00 0.00 94 1008.9
20260506113636 74 98 0.9 1.7 0.00 0.00 0.00 94 1008.9
20260506112635 74 132 0.9 2.6 0.00 0.00 0.00 94 1008.8
20260506112135 74 132 0.9 2.6 0.00 0.00 0.00 94 1008.7
20260506111636 74 94 0.9 2.6 0.00 0.00 0.00 94 1008.5
20260506111136 74 115 0.9 2.6 0.00 0.00 0.00 94 1008.5
20260506110634 74 0 0.9 2.6 0.00 0.00 0.00 94 1008.5
20260506110135 74 272 1.7 2.6 0.00 0.00 0.00 94 1008.5
20260506104635 74 85 0.9 2.6 0.00 0.00 0.00 94 1008.4
20260506104134 74 73 0.9 1.7 0.00 0.00 0.00 94 1008.5
20260506103634 74 196 0.9 3.5 0.00 0.00 0.00 94 1008.5
20260506103135 74 123 0.9 3.5 0.00 0.00 0.00 94 1008.4
20260506102635 74 62 1.7 2.6 0.00 0.00 0.00 94 1008.4
20260506102134 74 137 0.9 2.6 0.00 0.00 0.00 94 1008.3
20260506101635 74 89 0.9 2.6 0.00 0.00 0.00 94 1008.2
20260506101126 75 327 1.7 4.3 0.00 0.00 0.00 94 1008.3
20260506100122 75 59 0.9 3.5 0.00 0.00 0.00 93 1008.1
20260506095624 75 90 1.7 7.0 0.00 0.00 0.00 93 1008.0
20260506095123 75 182 1.7 7.0 0.00 0.00 0.00 93 1007.9
20260506094624 75 34 1.7 3.5 0.00 0.00 0.00 93 1007.9
20260506094123 75 170 0.9 4.3 0.00 0.00 0.00 93 1007.8
20260506093623 75 81 0.9 4.3 0.00 0.00 0.00 93 1007.8
20260506092622 75 0 1.7 5.2 0.00 0.00 0.00 94 1007.8
20260506092124 75 169 1.7 3.5 0.00 0.00 0.00 93 1007.7
20260506091623 75 94 1.7 4.3 0.00 0.00 0.00 93 1007.8
20260506091123 75 155 1.7 4.3 0.00 0.00 0.00 93 1007.8
20260506090624 75 133 1.7 5.2 0.00 0.00 0.00 93 1007.8
20260506085623 75 1 1.7 6.1 0.00 0.00 0.00 93 1007.8
20260506085123 75 109 1.7 5.2 0.00 0.00 0.00 93 1007.7
20260506084624 75 177 1.7 3.5 0.00 0.00 0.00 93 1007.7
20260506083621 75 177 1.7 6.1 0.00 0.00 0.00 93 1007.8
20260506082120 75 192 1.7 5.2 0.00 0.00 0.00 93 1007.8
20260506081621 75 201 1.7 5.2 0.00 0.00 0.00 93 1007.8
20260506081120 75 188 1.7 4.3 0.00 0.00 0.00 93 1007.7
20260506080620 75 175 1.7 4.3 0.00 0.00 0.00 94 1007.7
20260506080121 75 179 1.7 5.2 0.00 0.00 0.00 94 1007.9
20260506073121 75 182 1.7 5.2 0.00 0.00 0.00 94 1008.1
20260506072622 75 95 2.6 7.0 0.00 0.00 0.00 94 1008.0
20260506072121 74 202 1.7 7.0 0.00 0.00 0.00 94 1008.1
20260506071618 74 98 1.7 5.2 0.00 0.00 0.00 94 1008.2
20260506071119 74 161 1.7 6.1 0.00 0.00 0.00 94 1008.2
20260506070618 74 86 1.7 6.1 0.00 0.00 0.00 94 1008.3
20260506070118 74 128 1.7 4.3 0.00 0.00 0.00 94 1008.2
20260506062119 74 237 1.7 6.1 0.00 0.00 0.00 94 1008.5
20260506060618 74 135 1.7 4.3 0.00 0.00 0.00 93 1008.5
20260506060116 74 130 1.7 4.3 0.00 0.00 0.00 93 1008.4
20260506051111 75 175 1.7 5.2 0.00 0.00 0.00 92 1008.3
20260506050611 75 81 2.6 5.2 0.00 0.00 0.00 92 1008.3
20260506045111 75 328 2.6 5.2 0.00 0.00 0.00 92 1008.3
20260506044611 75 139 2.6 6.1 0.00 0.00 0.00 92 1008.4
20260506044111 75 155 2.6 6.1 0.00 0.00 0.00 92 1008.4
20260506042608 75 193 2.6 6.1 0.00 0.00 0.00 91 1008.1
20260506042109 75 128 2.6 7.0 0.00 0.00 0.00 91 1008.2
20260506041608 75 208 2.6 7.0 0.00 0.00 0.00 91 1008.1
20260506041108 75 148 2.6 6.1 0.00 0.00 0.00 90 1008.2
20260506040608 76 110 2.6 6.1 0.00 0.00 0.00 90 1008.3
20260506035605 76 119 2.6 6.1 0.00 0.00 0.00 90 1008.0
20260506035106 76 157 2.6 5.2 0.00 0.00 0.00 90 1007.9
20260506034606 76 83 2.6 6.1 0.00 0.00 0.00 90 1007.8
20260506033106 76 230 2.6 7.0 0.00 0.00 0.00 89 1007.8
20260506032606 76 184 2.6 6.1 0.00 0.00 0.00 89 1007.7
20260506032106 76 128 2.6 6.1 0.00 0.00 0.00 89 1007.6
20260506031607 76 143 2.6 6.1 0.00 0.00 0.00 88 1007.5
20260506031106 76 134 2.6 6.1 0.00 0.00 0.00 88 1007.4
20260506030103 76 132 2.6 6.1 0.00 0.00 0.00 88 1007.2
20260506025603 76 165 2.6 6.1 0.00 0.00 0.00 88 1007.1
20260506025104 77 122 2.6 6.1 0.00 0.00 0.00 87 1007.2
20260506024600 77 119 2.6 6.1 0.00 0.00 0.00 87 1007.2
20260506024100 77 157 2.6 6.1 0.00 0.00 0.00 87 1007.1
20260506023601 77 154 2.6 6.1 0.00 0.00 0.00 87 1007.1
20260506022101 77 79 2.6 6.1 0.00 0.00 0.00 86 1006.9
20260506021600 77 175 2.6 7.0 0.00 0.00 0.00 86 1006.9
20260506021101 77 191 2.6 7.0 0.00 0.00 0.00 86 1007.0
20260506020601 78 126 1.7 4.3 0.00 0.00 0.00 86 1006.8
20260506020100 78 112 1.7 5.2 0.00 0.00 0.00 85 1006.7
20260506015601 78 176 2.6 5.2 0.00 0.00 0.00 85 1006.7
20260506014101 79 196 2.6 7.0 0.00 0.00 0.00 83 1006.6
20260506013601 79 190 2.6 5.2 0.00 0.00 0.00 83 1006.4
20260506013059 79 138 2.6 5.2 0.00 0.00 0.00 82 1006.5
20260506012558 79 112 1.7 5.2 0.00 0.00 0.00 83 1006.4
20260506012058 79 132 1.7 5.2 0.00 0.00 0.00 83 1006.5
20260506011556 79 62 1.7 5.2 0.00 0.00 0.00 83 1006.4
20260506010552 79 114 1.7 5.2 0.00 0.00 0.00 83 1006.1
20260506010053 80 120 1.7 4.3 0.00 0.00 0.00 83 1006.0
20260506005553 80 139 1.7 3.5 0.00 0.00 0.00 82 1006.0
20260506005052 80 146 1.7 3.5 0.00 0.00 0.00 82 1005.9
20260506004553 80 128 0.9 3.5 0.00 0.00 0.00 82 1005.8
20260506004053 80 96 1.7 5.2 0.00 0.00 0.00 82 1005.8
20260506003553 81 102 1.7 5.2 0.00 0.00 0.00 81 1005.7
20260506003053 81 92 1.7 3.5 0.00 0.00 0.00 81 1005.6
20260506002553 81 122 1.7 3.5 0.00 0.00 0.00 80 1005.6
20260506001052 82 127 1.7 7.0 0.00 0.00 0.00 79 1005.4
20260506000552 82 181 2.6 7.0 0.00 0.00 0.00 79 1005.4
20260506000051 82 128 2.6 7.0 0.00 0.00 0.00 78 1005.3
20260505235550 82 98 2.6 7.0 0.00 0.00 0.00 78 1005.2
20260505235050 82 99 2.6 5.2 0.00 0.00 0.00 77 1005.2
20260505234548 83 81 1.7 5.2 0.00 0.00 0.00 77 1005.2
20260505233047 83 129 2.6 5.2 0.00 0.00 0.00 76 1005.2
20260505232548 83 117 2.6 5.2 0.00 0.00 0.00 75 1005.2
20260505232047 83 110 2.6 7.0 0.00 0.00 0.00 75 1005.2
20260505231548 84 111 1.7 7.0 0.00 0.00 0.00 74 1005.1
20260505231047 84 167 1.7 6.1 0.00 0.00 0.00 74 1005.1
20260505230547 84 96 1.7 4.3 0.00 0.00 0.00 73 1005.0
20260505230048 84 196 2.6 5.2 0.00 0.00 0.00 73 1005.0
20260505225547 84 87 2.6 5.2 0.00 0.00 0.00 73 1005.1
20260505225047 84 159 2.6 6.1 0.00 0.00 0.00 72 1004.9
20260505224548 84 140 2.6 6.1 0.00 0.00 0.00 71 1004.9
20260505224047 84 113 1.7 6.1 0.00 0.00 0.00 72 1004.9
20260505223548 85 43 1.7 6.1 0.00 0.00 0.00 71 1005.0
20260505223045 85 330 1.7 4.3 0.00 0.00 0.00 71 1005.0
20260505222543 85 87 1.7 4.3 0.00 0.00 0.00 71 1005.0
20260505221544 85 264 1.7 5.2 0.00 0.00 0.00 70 1004.9
20260505221044 84 236 1.7 6.1 0.00 0.00 0.00 69 1005.1
20260505220543 84 172 2.6 6.1 0.00 0.00 0.00 69 1005.1
20260505220044 84 200 1.7 6.1 0.00 0.00 0.00 70 1005.3
20260505215543 84 134 1.7 7.8 0.00 0.00 0.00 71 1005.2
20260505215043 84 136 1.7 7.8 0.00 0.00 0.00 70 1005.4
20260505214544 84 161 1.7 5.2 0.00 0.00 0.00 71 1005.3
20260505214044 84 133 1.7 6.1 0.00 0.00 0.00 71 1005.3
20260505213043 84 169 2.6 8.7 0.00 0.00 0.00 70 1005.4
20260505212544 85 193 2.6 6.1 0.00 0.00 0.00 70 1005.4
20260505212044 85 211 2.6 7.8 0.00 0.00 0.00 71 1005.4
20260505211543 85 200 3.5 7.8 0.00 0.00 0.00 69 1005.5
20260505211044 85 302 2.6 7.0 0.00 0.00 0.00 70 1005.4
20260505210543 85 222 2.6 5.2 0.00 0.00 0.00 69 1005.5
20260505210041 84 55 2.6 7.0 0.00 0.00 0.00 71 1005.7
20260505205537 84 156 2.6 7.0 0.00 0.00 0.00 72 1005.9